Weather History for Somerset, KY

Change the Weather History Date:

Monday, January 21, 2013

  Actual Average Record
Temperature  
Mean Temperature 28 °F -  
Max Temperature 35 °F 44 °F 71 °F (1999)
Min Temperature 21 °F 25 °F 8 °F (2009)
Degree Days  
Heating Degree Days 37    
Moisture  
Dew Point 13 °F    
Average Humidity 55    
Maximum Humidity 93    
Minimum Humidity 29    
Precipitation  
Precipitation 0.00 in - - ()
Sea Level Pressure  
Sea Level Pressure 30.19 in    
Wind  
Wind Speed 4 mph (WNW)    
Max Wind Speed 15 mph    
Max Gust Speed 26 mph    
Visibility 10 miles    
Events      
Averages and records for this station are not official NWS values.
T = Trace of Precipitation, MM = Missing Value Source: NWS Daily Summary

Daily Weather History Graph

Daily Weather History Graph

Search for Another Location

Airport:

Trip Planner

Search our weather history database for the weather conditions in past years. The results will help you decide how hot, cold, wet, or windy it might be!

Date:

Astronomy

Jan. 21, 2013 Rise Set
Actual Time 7:48 AM EST 5:51 PM EST
Civil Twilight 7:20 AM EST 6:19 PM EST
Nautical Twilight 6:48 AM EST 6:51 PM EST
Astronomical Twilight 6:17 AM EST 7:22 PM EST
Moon 1:31 PM EST (1/21) 3:15 AM EST (1/21)
Length of Visible Light 10h 59m
Length of Day
10h 03m
Waxing Gibbous, 75% of the Moon is Illuminated
Jan 21
Waxing Gibbous
Jan 26
Full
Feb 3
Last Quarter
Feb 10
New
Feb 17
First Quarter

Hourly Weather History & Observations

Time (EST) Temp. Windchill Dew Point Humidity Pressure Visibility Wind Dir Wind Speed Gust Speed Precip Events Conditions
12:15 AM 30.2 °F - 23.0 °F 75% 30.17 in 10.0 mi Calm Calm - N/A   Clear
12:35 AM 30.2 °F - 21.2 °F 69% 30.16 in 10.0 mi Calm Calm - N/A   Clear
12:55 AM 28.4 °F - 21.2 °F 74% 30.17 in 10.0 mi Calm Calm - N/A   Clear
1:15 AM 26.6 °F - 21.2 °F 80% 30.17 in 10.0 mi Calm Calm - N/A   Clear
1:35 AM 26.6 °F - 21.2 °F 80% 30.16 in 10.0 mi Calm Calm - N/A   Clear
1:55 AM 28.4 °F - 23.0 °F 80% 30.16 in 10.0 mi Calm Calm - N/A   Clear
2:15 AM 26.6 °F - 21.2 °F 80% 30.16 in 10.0 mi Calm Calm - N/A   Clear
2:35 AM 26.6 °F - 21.2 °F 80% 30.17 in 10.0 mi Calm Calm - N/A   Clear
2:55 AM 26.6 °F - 19.4 °F 74% 30.16 in 10.0 mi Calm Calm - N/A   Clear
3:15 AM 26.6 °F - 19.4 °F 74% 30.16 in 10.0 mi Calm Calm - N/A   Clear
3:35 AM 26.6 °F - 19.4 °F 74% 30.16 in 10.0 mi Calm Calm - N/A   Clear
3:55 AM 24.8 °F - 19.4 °F 80% 30.15 in 10.0 mi Calm Calm - N/A   Clear
4:15 AM 23.0 °F - 21.2 °F 93% 30.14 in 10.0 mi Calm Calm - N/A   Clear
4:35 AM 23.0 °F - 21.2 °F 93% 30.14 in 10.0 mi Calm Calm - N/A   Clear
4:55 AM 23.0 °F - 21.2 °F 93% 30.14 in 10.0 mi Calm Calm - N/A   Clear
5:15 AM 23.0 °F - 21.2 °F 93% 30.14 in 10.0 mi Calm Calm - N/A   Clear
5:55 AM 24.8 °F 20.5 °F 19.4 °F 80% 30.15 in 10.0 mi NW 3.5 mph - N/A   Clear
6:15 AM 24.8 °F 20.5 °F 17.6 °F 74% 30.16 in 10.0 mi WNW 3.5 mph - N/A   Scattered Clouds
6:35 AM 26.6 °F - 15.8 °F 64% 30.17 in 10.0 mi Calm Calm - N/A   Scattered Clouds
6:55 AM 24.8 °F - 15.8 °F 69% 30.16 in 10.0 mi Calm Calm - N/A   Clear
7:15 AM 24.8 °F - 15.8 °F 69% 30.16 in 10.0 mi Calm Calm - N/A   Clear
7:35 AM 23.0 °F 18.4 °F 17.6 °F 80% 30.17 in 10.0 mi West 3.5 mph - N/A   Clear
7:55 AM 23.0 °F - 17.6 °F 80% 30.18 in 10.0 mi Calm Calm - N/A   Clear
8:15 AM 24.8 °F 20.5 °F 17.6 °F 74% 30.19 in 10.0 mi WNW 3.5 mph - N/A   Clear
8:35 AM 26.6 °F - 15.8 °F 64% 30.19 in 10.0 mi Calm Calm - N/A   Clear
8:55 AM 26.6 °F - 17.6 °F 69% 30.20 in 10.0 mi Calm Calm - N/A   Clear
9:15 AM 28.4 °F 21.2 °F 17.6 °F 64% 30.20 in 10.0 mi West 6.9 mph - N/A   Clear
9:35 AM 28.4 °F 19.7 °F 17.6 °F 64% 30.21 in 10.0 mi West 9.2 mph - N/A   Clear
9:55 AM 30.2 °F 20.2 °F 17.6 °F 60% 30.22 in 10.0 mi West 12.7 mph 16.1 mph N/A   Clear
10:15 AM 30.2 °F 20.8 °F 15.8 °F 55% 30.22 in 10.0 mi West 11.5 mph - N/A   Clear
10:35 AM 30.2 °F 21.9 °F 14.0 °F 51% 30.22 in 10.0 mi West 9.2 mph 16.1 mph N/A   Clear
10:55 AM 32.0 °F 24.2 °F 14.0 °F 48% 30.23 in 10.0 mi West 9.2 mph - N/A   Clear
11:15 AM 32.0 °F 23.0 °F 14.0 °F 48% 30.22 in 10.0 mi West 11.5 mph - N/A   Clear
11:35 AM 32.0 °F 21.6 °F 15.8 °F 51% 30.21 in 10.0 mi West 15.0 mph - N/A   Clear
11:55 AM 32.0 °F 23.6 °F 17.6 °F 55% 30.20 in 10.0 mi West 10.4 mph 18.4 mph N/A   Clear
12:15 PM 33.8 °F 25.3 °F 17.6 °F 52% 30.19 in 10.0 mi WSW 11.5 mph 19.6 mph N/A   Clear
12:35 PM 33.8 °F 25.3 °F 15.8 °F 48% 30.18 in 10.0 mi West 11.5 mph 19.6 mph N/A   Clear
12:55 PM 33.8 °F 25.3 °F 14.0 °F 44% 30.16 in 10.0 mi West 11.5 mph 16.1 mph N/A   Clear
1:15 PM 33.8 °F 24.3 °F 10.4 °F 38% 30.16 in 10.0 mi West 13.8 mph 21.9 mph N/A   Clear
1:35 PM 33.8 °F 23.9 °F 12.2 °F 41% 30.15 in 10.0 mi West 15.0 mph 19.6 mph N/A   Clear
1:55 PM 35.6 °F 27.5 °F 10.4 °F 35% 30.14 in 10.0 mi West 11.5 mph 18.4 mph N/A   Clear
2:15 PM 35.6 °F 28.0 °F 12.2 °F 38% 30.14 in 10.0 mi WNW 10.4 mph 18.4 mph N/A   Clear
2:35 PM 35.6 °F 27.5 °F 12.2 °F 38% 30.15 in 10.0 mi WNW 11.5 mph 20.7 mph N/A   Clear
2:55 PM 35.6 °F 26.2 °F 10.4 °F 35% 30.15 in 10.0 mi West 15.0 mph 25.3 mph N/A   Clear
3:15 PM 33.8 °F 24.3 °F 10.4 °F 38% 30.15 in 10.0 mi West 13.8 mph 20.7 mph N/A   Clear
3:35 PM 33.8 °F 24.3 °F 10.4 °F 38% 30.15 in 10.0 mi WNW 13.8 mph 20.7 mph N/A   Clear
3:55 PM 33.8 °F 24.8 °F 8.6 °F 35% 30.16 in 10.0 mi WNW 12.7 mph 26.5 mph N/A   Clear
4:15 PM 33.8 °F 24.8 °F 6.8 °F 32% 30.17 in 10.0 mi West 12.7 mph 26.5 mph N/A   Clear
4:35 PM 32.0 °F 22.5 °F 6.8 °F 35% 30.17 in 10.0 mi West 12.7 mph 21.9 mph N/A   Clear
4:55 PM 32.0 °F 23.0 °F 6.8 °F 35% 30.18 in 10.0 mi West 11.5 mph 18.4 mph N/A   Clear
5:15 PM 32.0 °F 22.5 °F 6.8 °F 35% 30.17 in 10.0 mi West 12.7 mph 17.3 mph N/A   Clear
5:35 PM 32.0 °F 22.5 °F 6.8 °F 35% 30.17 in 10.0 mi WNW 12.7 mph 18.4 mph N/A   Clear
5:55 PM 30.2 °F 21.9 °F 5.0 °F 34% 30.18 in 10.0 mi West 9.2 mph - N/A   Clear
6:15 PM 30.2 °F 19.8 °F 1.4 °F 29% 30.18 in 10.0 mi West 13.8 mph 20.7 mph N/A   Clear
6:35 PM 30.2 °F 20.8 °F 5.0 °F 34% 30.19 in 10.0 mi WNW 11.5 mph - N/A   Clear
6:55 PM 28.4 °F 20.4 °F 3.2 °F 34% 30.20 in 10.0 mi WNW 8.1 mph 17.3 mph N/A   Clear
7:15 PM 28.4 °F 20.4 °F 3.2 °F 34% 30.20 in 10.0 mi WNW 8.1 mph 19.6 mph N/A   Clear
7:55 PM 28.4 °F 19.1 °F 5.0 °F 37% 30.21 in 10.0 mi WNW 10.4 mph - N/A   Mostly Cloudy
8:15 PM 26.6 °F 17.5 °F 5.0 °F 40% 30.22 in 10.0 mi WNW 9.2 mph 17.3 mph N/A   Scattered Clouds
8:35 PM 26.6 °F 16.2 °F 5.0 °F 40% 30.23 in 10.0 mi NW 11.5 mph - N/A   Clear
8:55 PM 26.6 °F 19.1 °F 1.4 °F 34% 30.24 in 10.0 mi WNW 6.9 mph - N/A   Clear
9:15 PM 24.8 °F 14.6 °F -0.4 °F 34% 30.24 in 10.0 mi WNW 10.4 mph 16.1 mph N/A   Scattered Clouds
9:35 PM 23.0 °F 13.9 °F 1.4 °F 39% 30.25 in 10.0 mi NW 8.1 mph - N/A   Scattered Clouds
9:55 PM 23.0 °F 12.4 °F 1.4 °F 39% 30.25 in 10.0 mi NW 10.4 mph - N/A   Scattered Clouds
10:15 PM 23.0 °F 13.9 °F 3.2 °F 43% 30.26 in 10.0 mi WNW 8.1 mph - N/A   Scattered Clouds
10:35 PM 23.0 °F 14.7 °F 3.2 °F 43% 30.26 in 10.0 mi WNW 6.9 mph - N/A   Mostly Cloudy
10:55 PM 23.0 °F 17.0 °F 5.0 °F 46% 30.27 in 10.0 mi NW 4.6 mph - N/A   Overcast
11:15 PM 23.0 °F 15.8 °F 3.2 °F 43% 30.26 in 10.0 mi WNW 5.8 mph - N/A   Scattered Clouds
11:35 PM 21.2 °F 12.6 °F 3.2 °F 46% 30.26 in 10.0 mi NW 6.9 mph - N/A   Scattered Clouds
11:55 PM 23.0 °F 13.9 °F 3.2 °F 43% 30.25 in 10.0 mi NW 8.1 mph - N/A   Mostly Cloudy